This is the latest recevied weather packets stored in our database for station/object KI5MKI. If no packets are shown the sender has not sent any weather packets the latest 10 day(s).
| Time | Temp. | Humidity | Pressure | Rain* | Wind** | Luminosity | Snow |
|---|---|---|---|---|---|---|---|
| 1778030188 | 25.56° C | 75% | 1006 hPa | 0 mm | - | 0 W/m² | - |
| 1778029884 | 25.56° C | 75% | 1006 hPa | 0 mm | - | 0 W/m² | - |
| 1778029583 | 25.56° C | 75% | 1006.2 hPa | 0 mm | - | 1 W/m² | - |
| 1778029279 | 25.56° C | 75% | 1006.3 hPa | 0 mm | - | 1 W/m² | - |
| 1778028976 | 25.56° C | 75% | 1006.1 hPa | 0 mm | - | 2 W/m² | - |
| 1778028673 | 25.56° C | 75% | 1005.9 hPa | 0 mm | - | 5 W/m² | - |
| 1778028370 | 25.56° C | 75% | 1005.7 hPa | 0 mm | - | 11 W/m² | - |
| 1778028066 | 26.11° C | 75% | 1005.6 hPa | 0 mm | - | 11 W/m² | - |
| 1778027763 | 26.11° C | 75% | 1005.5 hPa | 0 mm | - | 10 W/m² | - |
| 1778027459 | 26.11° C | 75% | 1005.7 hPa | 0 mm | - | 12 W/m² | - |
| 1778027155 | 26.11° C | 74% | 1005.7 hPa | 0 mm | - | 14 W/m² | - |
| 1778026851 | 26.11° C | 74% | 1005.6 hPa | 0 mm | - | 14 W/m² | - |
| 1778026547 | 26.11° C | 74% | 1005.7 hPa | 0 mm | - | 16 W/m² | - |
| 1778026245 | 26.67° C | 74% | 1005.5 hPa | 0 mm | - | 24 W/m² | - |
| 1778025942 | 26.67° C | 73% | 1005.4 hPa | 0 mm | - | 46 W/m² | - |
| 1778025639 | 26.67° C | 73% | 1005.3 hPa | 0 mm | - | 66 W/m² | - |
| 1778025337 | 26.67° C | 73% | 1005.2 hPa | 0 mm | - | 61 W/m² | - |
| 1778025034 | 26.67° C | 72% | 1005.5 hPa | 0 mm | - | 61 W/m² | - |
| 1778024731 | 26.67° C | 73% | 1005.3 hPa | 0 mm | - | 61 W/m² | - |
| 1778024428 | 26.67° C | 73% | 1005.5 hPa | 0 mm | - | 89 W/m² | - |
| 1778024125 | 26.67° C | 72% | 1005.5 hPa | 0 mm | - | 88 W/m² | - |
| 1778023822 | 26.67° C | 71% | 1005.3 hPa | 0 mm | - | 89 W/m² | - |
| 1778023520 | 27.22° C | 71% | 1005.3 hPa | 0 mm | - | 89 W/m² | - |
| 1778023217 | 27.78° C | 70% | 1005.3 hPa | 0 mm | - | 113 W/m² | - |
| 1778022914 | 27.22° C | 71% | 1005.3 hPa | 0 mm | - | 248 W/m² | - |
* Rain latest hour (hover to see other rain measurements)
** Current wind speed in m/s (hover to see current wind gust speed)